Gwinn, MI

8:33 AM EDT on March 28, 2017 (GMT -0400)
Sawyer International

Weather History for KSAW - August, 2012

Change the Weather History Date:

Sunday, August 5, 2012

  Actual Average (KESC) Record (KESC)
Temperature  
Mean Temperature 66 °F -  
Max Temperature 73 °F 73 °F 89 °F (1958)
Min Temperature 57 °F 57 °F 42 °F (1997)
Growing Degree Days 16 (Base 50)    
Moisture  
Dew Point 49 °F    
Average Humidity 63    
Maximum Humidity 84    
Minimum Humidity 25    
Precipitation  
Precipitation 0.00 in - - ()
Sea Level Pressure  
Sea Level Pressure 29.91 in    
Wind  
Wind Speed 7 mph (West)    
Max Wind Speed 21 mph    
Max Gust Speed 34 mph    
Visibility 10 miles    
Events      
Averages and records for this station are not official NWS values.
T = Trace of Precipitation, MM = Missing Value Source: NWS Daily Summary

Daily Weather History Graph

Daily Weather History Graph

Search for Another Location

Airport or City:

Trip Planner

Search our weather history database for the weather conditions in past years. The results will help you decide how hot, cold, wet, or windy it might be!

Date:

Astronomy

Aug. 05, 2012 Rise Set
Actual Time 6:36 AM EDT 9:13 PM EDT
Civil Twilight 6:02 AM EDT 9:47 PM EDT
Nautical Twilight 5:18 AM EDT 10:30 PM EDT
Astronomical Twilight 4:28 AM EDT 11:20 PM EDT
Moon 10:32 PM EDT (8/5) 10:43 AM EDT (8/5)
Length of Visible Light 15h 45m
Length of Day
14h 37m
Waning Gibbous, 86% of the Moon is Illuminated
Aug 5
Waning Gibbous
Aug 9
Last Quarter
Aug 17
New
Aug 24
First Quarter
Aug 31
Full

Hourly Weather History & Observations

Time (EDT) Temp. Dew Point Humidity Pressure Visibility Wind Dir Wind Speed Gust Speed Precip Events Conditions
12:17 AM 67.1 °F 62.1 °F 84% 29.80 in 10.0 mi West 3.5 mph - N/A   Overcast
12:36 AM 66.7 °F 61.7 °F 84% 29.80 in 10.0 mi WSW 4.6 mph - N/A   Overcast
12:57 AM 66.4 °F 61.3 °F 84% 29.81 in 10.0 mi WSW 5.8 mph - N/A   Mostly Cloudy
1:16 AM 65.5 °F 59.7 °F 82% 29.80 in 10.0 mi West 5.8 mph - N/A   Scattered Clouds
1:36 AM 64.8 °F 58.6 °F 81% 29.79 in 10.0 mi West 4.6 mph - N/A   Clear
1:57 AM 63.9 °F 58.1 °F 81% 29.80 in 10.0 mi WSW 4.6 mph - N/A   Clear
2:16 AM 63.3 °F 57.6 °F 81% 29.79 in 10.0 mi WSW 4.6 mph - N/A   Clear
2:37 AM 62.8 °F 56.8 °F 81% 29.79 in 10.0 mi WSW 5.8 mph - N/A   Clear
2:57 AM 62.6 °F 56.5 °F 80% 29.79 in 10.0 mi WSW 5.8 mph - N/A   Clear
3:16 AM 61.7 °F 56.3 °F 82% 29.80 in 10.0 mi WSW 6.9 mph - N/A   Clear
3:37 AM 61.7 °F 55.8 °F 81% 29.80 in 10.0 mi WSW 8.1 mph - N/A   Clear
3:57 AM 61.7 °F 55.4 °F 80% 29.79 in 10.0 mi West 9.2 mph - N/A   Clear
4:16 AM 61.2 °F 55.4 °F 81% 29.79 in 10.0 mi WSW 6.9 mph - N/A   Clear
4:37 AM 60.8 °F 54.7 °F 80% 29.79 in 10.0 mi West 6.9 mph - N/A   Clear
4:57 AM 60.8 °F 54.5 °F 80% 29.78 in 10.0 mi West 8.1 mph - N/A   Clear
5:16 AM 61.2 °F 54.7 °F 79% 29.78 in 10.0 mi West 10.4 mph - N/A   Clear
5:37 AM 60.8 °F 54.5 °F 80% 29.79 in 10.0 mi West 11.5 mph 16.1 mph N/A   Clear
5:56 AM 60.6 °F 54.5 °F 80% 29.80 in 10.0 mi West 9.2 mph - N/A   Clear
6:50 AM 59.0 °F 51.8 °F 77% 29.83 in 10.0 mi NW 16.1 mph 24.2 mph N/A   Mostly Cloudy
7:50 AM 59.0 °F 50.0 °F 72% 29.88 in 10.0 mi WNW 13.8 mph 21.9 mph N/A   Scattered Clouds
8:50 AM 59.0 °F 48.2 °F 67% 29.89 in 10.0 mi NW 16.1 mph 20.7 mph N/A   Mostly Cloudy
9:50 AM 60.8 °F 46.4 °F 59% 29.92 in 10.0 mi NW 18.4 mph 29.9 mph N/A   Scattered Clouds
10:50 AM 60.8 °F 46.4 °F 59% 29.95 in 10.0 mi WNW 15.0 mph 24.2 mph N/A   Overcast
11:50 AM 64.4 °F 44.6 °F 49% 29.97 in 10.0 mi NW 16.1 mph 25.3 mph N/A   Mostly Cloudy
12:50 PM 66.2 °F 39.2 °F 37% 29.99 in 10.0 mi SSW 13.8 mph 24.2 mph N/A   Mostly Cloudy
1:55 PM 68.0 °F 39.2 °F 35% 30.00 in 10.0 mi West 18.4 mph 31.1 mph N/A   Clear
2:50 PM 69.8 °F 39.2 °F 33% 30.00 in 10.0 mi NW 15.0 mph 29.9 mph N/A   Clear
3:55 PM 71.6 °F 39.2 °F 31% 30.01 in 10.0 mi WNW 11.5 mph 34.5 mph N/A   Clear
4:50 PM 73.4 °F 35.6 °F 25% 30.02 in 10.0 mi West 20.7 mph 31.1 mph N/A   Clear
5:50 PM 73.4 °F 37.4 °F 27% 30.03 in 10.0 mi NW 13.8 mph 24.2 mph N/A   Clear
6:50 PM 71.6 °F 37.4 °F 29% 30.04 in 10.0 mi WNW 12.7 mph 20.7 mph N/A   Clear
8:50 PM 68.0 °F 39.2 °F 35% 30.05 in 10.0 mi WNW 4.6 mph - N/A   Clear
9:50 PM 66.2 °F 41.0 °F 40% 30.07 in 10.0 mi Calm Calm - N/A   Clear
10:17 PM 62.6 °F 42.6 °F 48% 30.08 in 10.0 mi Calm Calm - N/A   Clear
10:37 PM 61.0 °F 43.3 °F 52% 30.08 in 10.0 mi Calm Calm - N/A   Clear
10:56 PM 58.8 °F 42.8 °F 55% 30.08 in 10.0 mi Calm Calm - N/A   Clear
11:17 PM 59.0 °F 42.3 °F 54% 30.08 in 10.0 mi SW 3.5 mph - N/A   Clear
11:37 PM 58.5 °F 43.5 °F 58% 30.08 in 10.0 mi Calm Calm - N/A   Clear
11:56 PM 57.7 °F 43.3 °F 59% 30.09 in 10.0 mi Calm Calm - N/A   Clear